Вернуться в каталог

FENGYUN 1C DEB

АктивенSSO
NORAD 39543·DEBRIS·🇨🇳 China

Запущен May 10, 1999 с Taiyuan Satellite Launch Center

Loading…

Ближайшие Пролёты (ближайшие 24 часа)

TLE

УстаревающийSource: Space-Track

Эпоха: Sep 7, 2026, 07:56 UTC

1 39543U 99025EWL 26250.33066966  .00000564  00000-0  45285-3 0  9995
2 39543  99.0206 269.3923 0337926 154.8728 206.9300 13.70718849528644

Отслеживайте FENGYUN 1C DEB в реальном времени с AllMySat

Download on the App Store